User: anonymous   Login
Location: Copper Breaks State Park
(34.1132°N, 99.7492°W)
Time: 23:24:48
(UTC-05:00)
Language:

SL-16 R/B - Orbit

View from above orbital plane
View from above orbital plane
View from above satellite
View from above satellite

Ground track
Ground track

The orbit data is extracted from the following two-line orbital elements,

1 27006U 01056F   15244.89724172 -.00000013  00000-0  32557-4 0  9994
2 27006  99.2182  38.5406 0014127 214.2006 260.1924 13.70963732686841
Epoch (UTC): 01 September 2015 21:32:01
Eccentricity: 0.0014127
inclination: 99.2182°
perigee height: 985 km
apogee height: 1006 km
right ascension of ascending node: 38.5406°
argument of perigee: 214.2006°
revolutions per day: 13.70963732
mean anomaly at epoch: 260.1924°
orbit number at epoch: 68684

The dashed part of the orbit path shows where the satellite is in the earth's shadow,  

DLR